IRIDIUM 106 1 41917U 17003A 26033.37247981 .00000035 00000+0 56034-5 0 9998 2 41917 86.4020 144.9040 0001921 86.7517 273.3898 14.34217616473888 IRIDIUM 103 1 41918U 17003B 26034.12725681 .00000321 00000+0 10747-3 0 9998 2 41918 86.4019 144.4895 0002486 95.1971 264.9508 14.34215342474019 IRIDIUM 109 1 41919U 17003C 26034.13359214 .00000117 00000+0 34693-4 0 9995 2 41919 86.4022 144.5441 0002094 95.9048 264.2387 14.34216629473982 IRIDIUM 102 1 41920U 17003D 26033.33442456 .00000096 00000+0 27083-4 0 9990 2 41920 86.4020 144.8041 0002091 98.8809 261.2624 14.34217784473956 IRIDIUM 105 1 41921U 17003E 26034.14173473 .00000345 00000+0 11573-3 0 9994 2 41921 86.3974 112.9459 0002182 98.2022 261.9421 14.34400174475923 IRIDIUM 104 1 41922U 17003F 26033.55641658 .00000313 00000+0 10462-3 0 9995 2 41922 86.4024 144.7521 0002394 102.5842 257.5621 14.34217059473972 IRIDIUM 114 1 41923U 17003G 26033.56275772 .00000112 00000+0 32800-4 0 9995 2 41923 86.4020 144.7330 0002346 99.3851 260.7611 14.34218167473951 IRIDIUM 108 1 41924U 17003H 26034.14919494 .00000113 00000+0 33236-4 0 9992 2 41924 86.3971 112.8302 0002045 101.0111 259.1315 14.34216321475895 IRIDIUM 112 1 41925U 17003J 26033.55007350 .00000141 00000+0 43309-4 0 9999 2 41925 86.4016 144.5866 0002159 100.5409 259.6030 14.34217514473975 IRIDIUM 111 1 41926U 17003K 26034.16530594 .00000278 00000+0 92225-4 0 9991 2 41926 86.4019 144.3975 0002159 96.3456 263.7986 14.34217235474047 IRIDIUM 113 1 42803U 17039A 26034.07550066 .00000094 00000+0 26661-4 0 9998 2 42803 86.3974 18.2084 0002314 88.6811 271.4650 14.34217508451966 IRIDIUM 123 1 42804U 17039B 26034.11697851 .00000040 00000+0 73909-5 0 9997 2 42804 86.3927 49.6674 0002371 85.7394 274.4072 14.34217459450735 IRIDIUM 120 1 42805U 17039C 26033.51100968 -.00000208 00000+0 -81457-4 0 9993 2 42805 86.3964 18.2447 0001904 83.9827 276.1585 14.34216469451873 IRIDIUM 115 1 42806U 17039D 26033.96341041 .00000418 00000+0 11827-3 0 9996 2 42806 86.4501 18.1652 0002341 77.1668 282.9795 14.43277182454907 IRIDIUM 118 1 42807U 17039E 26034.07892211 .00000038 00000+0 63955-5 0 9999 2 42807 86.3927 49.6820 0002322 92.4137 267.7324 14.34217329450727 IRIDIUM 117 1 42808U 17039F 26034.09795018 .00000057 00000+0 13270-4 0 9994 2 42808 86.3925 49.6329 0002315 87.4259 272.7202 14.34217406450751 IRIDIUM 126 1 42809U 17039G 26034.12331962 .00000013 00000+0 -24338-5 0 9994 2 42809 86.3924 49.6714 0002269 90.1777 269.9679 14.34217108450736 IRIDIUM 124 1 42810U 17039H 26033.41190034 .00000430 00000+0 12184-3 0 9996 2 42810 86.4530 346.7058 0002327 81.1491 278.9973 14.43282290455671 IRIDIUM 128 1 42811U 17039J 26034.11406671 .00000293 00000+0 97465-4 0 9995 2 42811 86.3925 81.2207 0002022 89.1497 270.9930 14.34214922450769 IRIDIUM 121 1 42812U 17039K 26034.07257662 .00000140 00000+0 43053-4 0 9990 2 42812 86.3927 49.7193 0002111 91.2407 268.9030 14.34218719450608 IRIDIUM 133 1 42955U 17061A 26034.14577208 .00000256 00000+0 84511-4 0 9994 2 42955 86.3926 81.3219 0002241 92.2294 267.9159 14.34218374435561 IRIDIUM 100 1 42956U 17061B 26034.13943159 .00000268 00000+0 88510-4 0 9992 2 42956 86.3924 81.2463 0002199 93.0977 267.0470 14.34218048435564 IRIDIUM 122 1 42957U 17061C 26034.10771763 .00000066 00000+0 16334-4 0 9991 2 42957 86.3926 81.2594 0002310 91.8636 268.2824 14.34217618435563 IRIDIUM 129 1 42958U 17061D 26034.13308728 .00000207 00000+0 66839-4 0 9994 2 42958 86.3923 81.3143 0002383 102.2408 257.9055 14.34218195435580 IRIDIUM 119 1 42959U 17061E 26034.10137490 .00000148 00000+0 45705-4 0 9991 2 42959 86.3924 81.3229 0002400 95.2209 264.9261 14.34217819435597 IRIDIUM 107 1 42960U 17061F 26033.56225518 .00000051 00000+0 11248-4 0 9999 2 42960 86.3930 81.5689 0002381 86.6525 273.4943 14.34216902435528 IRIDIUM 132 1 42961U 17061G 26034.12674399 .00000218 00000+0 70887-4 0 9997 2 42961 86.3922 81.3129 0002233 90.8935 269.2516 14.34218322435601 IRIDIUM 136 1 42962U 17061H 26034.15845755 .00000252 00000+0 83055-4 0 9996 2 42962 86.3925 81.3058 0002368 92.6912 267.4555 14.34219663435624 IRIDIUM 139 1 42963U 17061J 26034.16480021 .00000122 00000+0 36406-4 0 9993 2 42963 86.3927 81.3631 0002182 90.7103 269.4342 14.34217172435639 IRIDIUM 125 1 42964U 17061K 26034.15211276 .00000196 00000+0 62775-4 0 9996 2 42964 86.3928 81.4271 0002762 88.8253 271.3259 14.34216381435641 IRIDIUM 135 1 43070U 17083A 26033.49832447 .00000033 00000+0 46731-5 0 9999 2 43070 86.3968 18.2949 0002180 89.1402 271.0043 14.34217281424846 IRIDIUM 138 1 43071U 17083B 26033.94230604 .00000115 00000+0 33956-4 0 9992 2 43071 86.3983 17.7841 0002542 91.7929 268.3558 14.34217295424894 IRIDIUM 116 1 43072U 17083C 26034.05012771 .00000203 00000+0 65582-4 0 9997 2 43072 86.3968 18.0519 0001902 82.2586 277.8826 14.34216780424944 IRIDIUM 130 1 43073U 17083D 26033.46026817 .00000093 00000+0 26248-4 0 9991 2 43073 86.3975 18.5605 0002142 79.8893 280.2544 14.34217772424806 IRIDIUM 151 1 43074U 17083E 26033.92327556 .00000062 00000+0 15108-4 0 9996 2 43074 86.3965 18.1591 0002164 87.0488 273.0956 14.34216962424897 IRIDIUM 134 1 43075U 17083F 26033.47295134 .00000267 00000+0 88309-4 0 9993 2 43075 86.3968 18.3545 0002127 82.2224 277.9213 14.34216744424792 IRIDIUM 137 1 43076U 17083G 26034.04378154 .00000219 00000+0 71174-4 0 9991 2 43076 86.3971 18.2055 0001712 90.1530 269.9862 14.34215741424943 IRIDIUM 141 1 43077U 17083H 26033.47929681 .00000031 00000+0 39125-5 0 9998 2 43077 86.3967 18.2796 0002290 89.2690 270.8768 14.34217450424865 IRIDIUM 153 1 43078U 17083J 26033.36170837 .00000344 00000+0 11594-3 0 9993 2 43078 86.4007 346.8335 0002475 85.6603 274.4876 14.34217370425952 IRIDIUM 131 1 43079U 17083K 26033.46660094 .00000131 00000+0 39855-4 0 9999 2 43079 86.3972 18.4622 0002249 89.8666 270.2787 14.34211640424798 IRIDIUM 144 1 43249U 18030A 26033.36804894 .00000124 00000+0 37169-4 0 9996 2 43249 86.4007 346.7629 0002071 82.1204 278.0227 14.34217158410811 IRIDIUM 149 1 43250U 18030B 26033.37439036 .00000194 00000+0 62370-4 0 9990 2 43250 86.4004 346.7290 0002206 85.9495 274.1953 14.34217973410837 IRIDIUM 157 1 43251U 18030C 26033.39341927 .00000078 00000+0 20883-4 0 9998 2 43251 86.4006 346.7712 0002170 87.4273 272.7171 14.34216541410814 IRIDIUM 140 1 43252U 18030D 26033.62175339 .00000051 00000+0 11191-4 0 9990 2 43252 86.4003 346.6886 0002189 81.9867 278.1577 14.34216867410902 IRIDIUM 145 1 43253U 18030E 26033.39976152 .00000213 00000+0 68843-4 0 9993 2 43253 86.4007 346.7540 0001987 79.5394 280.6026 14.34216645410808 IRIDIUM 146 1 43254U 18030F 26033.59004008 -.00000012 00000+0 -11423-4 0 9999 2 43254 86.4000 346.6875 0001931 82.6901 277.4515 14.34217017410845 IRIDIUM 148 1 43255U 18030G 26033.41879023 -.00000002 00000+0 -76368-5 0 9997 2 43255 86.4000 346.8000 0002007 86.3037 273.8389 14.34217336410858 IRIDIUM 142 1 43256U 18030H 26033.59638250 .00000301 00000+0 10052-3 0 9998 2 43256 86.4002 346.6196 0001961 77.6549 282.4866 14.34217084410849 IRIDIUM 150 1 43257U 18030J 26033.98327222 .00000300 00000+0 10022-3 0 9992 2 43257 86.4008 346.5697 0002138 82.6951 277.4487 14.34221176410920 IRIDIUM 143 1 43258U 18030K 26033.40610294 .00000104 00000+0 30220-4 0 9999 2 43258 86.4011 346.8980 0002103 80.3757 279.7676 14.34216304410779 IRIDIUM 161 1 43478U 18047C 26034.15249918 .00000430 00000+0 12169-3 0 9998 2 43478 86.4540 144.5021 0002314 101.4074 258.7387 14.43283260405809 IRIDIUM 152 1 43479U 18047D 26034.14627767 .00000070 00000+0 18034-4 0 9998 2 43479 86.4015 144.3651 0002275 98.7159 261.4294 14.34217454403271 IRIDIUM 147 1 43480U 18047E 26033.38516605 .00000033 00000+0 47447-5 0 9993 2 43480 86.4016 144.6855 0001976 95.8278 264.3143 14.34216241403166 IRIDIUM 110 1 43481U 18047F 26034.15896311 -.00000016 00000+0 -12870-4 0 9999 2 43481 86.4022 144.4509 0002314 106.5869 253.5581 14.34216448403267 IRIDIUM 162 1 43482U 18047G 26034.14616796 .00000442 00000+0 12535-3 0 9994 2 43482 86.4540 144.3975 0002377 92.2032 267.9441 14.43285733405798 IRIDIUM 160 1 43569U 18061A 26034.17456719 .00000308 00000+0 10307-3 0 9992 2 43569 86.3974 112.8519 0002220 100.5255 259.6191 14.34217952394161 IRIDIUM 166 1 43570U 18061B 26034.13016763 .00000074 00000+0 19538-4 0 9997 2 43570 86.3971 112.8225 0002067 95.7311 264.4120 14.34218091394184 IRIDIUM 158 1 43571U 18061C 26034.16822447 .00000281 00000+0 93110-4 0 9993 2 43571 86.3971 112.8166 0002363 93.7451 266.4015 14.34217796394154 IRIDIUM 165 1 43572U 18061D 26034.12382877 .00000292 00000+0 97375-4 0 9997 2 43572 86.3972 112.8790 0002063 95.4734 264.6697 14.34217351394174 IRIDIUM 155 1 43573U 18061E 26034.15553864 .00000099 00000+0 28360-4 0 9990 2 43573 86.3968 112.7413 0002190 92.4038 267.7408 14.34216678394148 IRIDIUM 154 1 43574U 18061F 26034.20629281 .00000277 00000+0 91822-4 0 9995 2 43574 86.3973 112.8472 0002003 96.2343 263.9081 14.34219111394202 IRIDIUM 163 1 43575U 18061G 26033.62910578 .00000302 00000+0 10075-3 0 9992 2 43575 86.3971 113.0080 0002274 96.3845 263.7610 14.34217817394091 IRIDIUM 156 1 43576U 18061H 26034.16188133 .00000147 00000+0 45552-4 0 9993 2 43576 86.3971 112.7925 0002175 90.7138 269.4307 14.34217347394161 IRIDIUM 164 1 43577U 18061J 26034.14285267 .00000087 00000+0 23875-4 0 9995 2 43577 86.3973 112.8386 0001989 99.4254 260.7166 14.34216588394201 IRIDIUM 159 1 43578U 18061K 26033.48322867 .00000271 00000+0 89544-4 0 9990 2 43578 86.3971 113.0538 0002217 100.0402 260.1045 14.34214335394074 IRIDIUM 180 1 43922U 19002A 26034.11062810 -.00000051 00000+0 -25390-4 0 9996 2 43922 86.3923 49.6315 0002219 94.6201 265.5248 14.34215924369776 IRIDIUM 176 1 43923U 19002B 26033.99074498 .00000411 00000+0 61326-4 0 9994 2 43923 86.6049 49.6443 0002460 90.1854 269.9644 14.72247510379502 IRIDIUM 168 1 43924U 19002C 26034.10429331 .00000068 00000+0 17197-4 0 9994 2 43924 86.3925 49.7074 0002266 91.3669 268.7786 14.34217884369754 IRIDIUM 173 1 43925U 19002D 26034.09160756 .00000060 00000+0 14467-4 0 9995 2 43925 86.3923 49.6073 0002340 88.6787 271.4677 14.34217460369732 IRIDIUM 169 1 43926U 19002E 26034.14872194 .00000318 00000+0 97467-4 0 9995 2 43926 86.4180 81.2479 0002814 78.2903 281.8611 14.38609072370959 IRIDIUM 172 1 43927U 19002F 26034.08526558 .00000060 00000+0 14212-4 0 9990 2 43927 86.3924 49.6174 0002264 95.3521 264.7933 14.34217357369749 IRIDIUM 175 1 43928U 19002G 26033.37439363 .00001175 00000+0 18248-3 0 9999 2 43928 86.1534 349.4060 0001381 66.6152 293.5210 14.72245440379408 IRIDIUM 171 1 43929U 19002H 26034.13600365 .00000146 00000+0 45100-4 0 9992 2 43929 86.3934 49.8879 0002072 87.0063 273.1369 14.34219090369745 IRIDIUM 170 1 43930U 19002J 26034.06489927 .00000411 00000+0 61323-4 0 9995 2 43930 86.6047 49.6166 0002348 92.9584 267.1902 14.72245490379529 IRIDIUM 167 1 43931U 19002K 26034.12965186 .00000153 00000+0 47594-4 0 9996 2 43931 86.3924 49.6200 0002113 80.8823 279.2612 14.34218272369743 IRIDIUM 181 1 56726U 23068S 26034.16207101 .00000391 00000+0 11003-3 0 9998 2 56726 86.4510 112.8367 0001976 105.2405 254.9014 14.43312457143108 IRIDIUM 177 1 56727U 23068T 26034.13338578 .00000625 00000+0 78764-4 0 9997 2 56727 86.1946 32.4323 0002393 88.1644 271.9851 14.80232269146537 IRIDIUM 174 1 56728U 23068U 26034.12048942 .00000451 00000+0 67676-4 0 9997 2 56728 86.6056 49.7273 0002523 93.1719 266.9787 14.72245131146292 IRIDIUM 178 1 56729U 23068V 26034.12251883 .00001219 00000+0 15698-3 0 9997 2 56729 86.6497 81.4055 0002000 81.8986 278.2462 14.80230028146534 IRIDIUM 179 1 56730U 23068W 26034.11713729 .00001204 00000+0 15498-3 0 9992 2 56730 86.6745 89.9941 0002256 90.9957 269.1523 14.80233808146537